Theta_e
313 315 315 317 317 317 317 316 317 317 317 317 317 317 316 315 315 316 316 316 315 315 313 311 310 310 310 309 309 309 310 310 310 310 311 311 313 315 315 316 316 315 315 314
314 315 316 316 316 314 315 316 316 317 317 317 316 315 315 315 316 316 316 315 315 313 312 310 308 309 308 308 309 309 308 308 309 309 310 311 313 314 314 314 314 314 314 314
316 318 317 314 315 315 316 316 316 316 316 314 315 315 317 318 319 316 313 313 312 310 309 308 308 309 310 309 309 309 308 307 306 307 307 308 309 309 309 310 310 311 312 312
317 313 312 313 314 314 315 315 314 314 314 315 313 316 317 319 319 314 312 310 309 307 306 305 307 309 308 308 307 307 308 309 308 306 305 305 307 307 306 306 306 307 307 308
315 312 312 313 313 314 314 312 312 312 313 314 315 316 319 320 317 313 311 309 306 305 304 302 302 303 304 304 304 304 306 307 307 306 305 305 304 304 304 305 305 304 304 304
313 310 311 314 312 312 311 311 313 314 314 319 319 320 320 317 314 312 309 307 305 304 302 301 301 303 304 304 306 306 304 304 305 305 304 303 302 302 303 303 303 302 302 302
317 316 318 311 313 312 310 313 321 323 321 322 316 321 318 316 312 311 308 306 304 303 302 300 300 299 300 302 303 303 303 304 304 303 303 302 302 302 302 301 301 301 301 301
318 317 316 311 313 315 314 316 321 325 323 323 319 320 320 313 309 308 307 305 303 302 300 299 298 297 297 296 296 297 301 303 303 302 301 301 301 302 302 302 301 300 300 299
317 317 312 309 310 311 315 315 315 321 319 319 317 317 317 310 309 308 307 305 302 300 299 298 297 296 295 295 295 296 297 298 299 300 300 300 299 299 299 300 301 301 301 300
315 318 317 313 308 309 309 309 315 315 319 319 316 316 317 313 311 309 306 303 301 299 298 297 296 295 294 295 295 295 295 295 294 294 293 295 298 299 298 298 298 299 300 301
315 315 316 313 313 314 312 311 310 311 315 318 318 316 315 312 310 308 303 300 299 298 297 296 295 294 293 292 291 291 291 291 291 292 292 292 291 290 293 296 296 297 297 297
313 314 315 314 312 312 313 313 313 314 314 314 315 315 315 307 306 302 301 299 297 295 294 293 293 292 291 291 291 290 290 290 290 289 289 289 288 288 288 288 289 291 294 296
312 313 314 312 308 311 313 312 312 313 313 316 318 317 310 308 303 299 299 296 295 294 292 291 291 291 290 289 289 288 288 288 288 288 288 287 286 286 286 286 286 287 288 289
309 311 312 313 308 310 311 310 311 311 312 311 311 311 309 308 308 306 299 296 294 294 291 290 290 289 289 289 288 287 287 287 287 287 286 286 286 286 286 286 286 286 286 286
307 308 307 308 308 307 307 306 307 307 307 308 307 307 306 305 302 297 294 292 293 293 292 290 289 289 288 287 287 287 287 287 286 286 286 286 286 286 286 286 286 286 286 286
302 303 304 303 303 303 304 303 304 304 304 303 303 304 304 299 296 296 295 293 291 291 291 290 289 289 289 288 288 287 287 287 286 286 286 286 286 286 286 286 286 286 286 285
300 300 301 301 300 300 300 300 300 301 301 301 301 300 296 295 294 293 292 292 291 291 291 290 289 289 289 288 288 288 287 287 286 286 286 286 286 286 286 286 286 285 285 285
299 300 300 300 299 299 299 298 296 296 297 298 298 296 293 292 292 292 292 291 291 291 290 290 290 289 289 288 287 286 286 285 284 285 285 285 284 284 285 285 285 285 285 285
296 297 298 297 298 297 296 296 295 295 296 297 298 294 292 291 291 291 292 291 291 291 290 289 289 289 287 286 285 285 285 283 282 281 281 281 281 281 282 283 283 283 283 283
293 295 297 295 295 294 295 294 292 292 294 295 295 293 292 291 291 292 291 291 290 290 290 289 289 288 286 285 284 283 282 281 280 280 279 279 279 279 278 278 278 279 280 281
294 294 296 296 296 295 294 293 291 293 294 294 292 292 291 292 292 291 291 290 290 290 289 289 287 287 286 284 284 283 280 279 278 278 277 276 276 276 275 275 275 275 275 274
292 293 294 293 294 293 293 292 292 294 293 292 292 292 291 291 291 290 290 290 289 289 288 287 287 287 286 285 282 282 281 277 276 275 275 274 273 272 271 271 271 270 271 271
291 293 293 293 293 293 291 292 292 292 292 292 291 291 291 291 290 290 290 289 288 287 286 285 285 285 284 281 279 279 278 276 275 274 272 271 270 269 268 267 267 267 267 268
292 292 292 293 292 292 291 291 291 291 291 291 291 291 290 290 289 289 288 287 286 285 284 284 283 282 281 280 278 277 276 274 273 272 270 268 266 265 265 265 265 265 265 266
293 292 292 292 292 292 291 291 291 291 290 290 290 290 289 288 288 287 286 284 284 283 282 281 280 280 279 277 277 276 274 272 270 268 266 265 265 264 264 264 264 264 265 265
292 292 292 292 292 292 291 291 291 291 290 290 290 288 288 287 285 284 283 283 281 280 279 279 279 277 277 276 276 274 272 270 268 265 264 264 263 263 264 264 264 265 266 267
Wind_Speed
10 8 10 15 16 20 22 22 24 22 20 23 24 24 20 24 33 33 27 17 8 7 10 16 18 19 15 10 6 2 8 13 16 19 24 28 32 33 33 36 36 36 38 39
3 12 15 16 16 13 18 22 23 21 18 16 20 23 25 23 24 19 15 12 2 12 18 18 18 20 23 20 17 12 5 3 7 12 15 17 17 22 25 28 33 38 40 41
16 16 15 10 13 17 20 18 21 24 18 18 18 19 10 10 22 5 11 14 18 18 18 18 20 24 24 25 24 20 15 8 2 5 10 12 15 18 17 21 27 33 36 40
11 6 5 10 12 16 18 16 14 15 12 9 7 9 16 18 13 15 25 19 17 18 19 19 21 23 23 22 20 20 18 16 13 6 3 6 8 11 10 15 18 24 28 33
1 1 3 7 10 11 13 6 10 10 11 16 13 9 6 13 5 14 17 16 16 18 18 19 20 20 21 22 23 21 20 19 17 14 9 6 7 8 10 10 16 21 22 24
12 5 4 7 7 8 8 9 14 16 8 8 12 11 5 5 10 9 16 15 14 15 17 17 17 20 22 23 23 24 21 22 21 18 15 11 7 8 8 8 16 17 20 23
6 13 13 7 9 8 7 8 6 5 6 7 4 7 9 8 8 10 11 12 12 13 14 16 18 18 18 19 19 20 21 24 24 22 19 17 15 12 11 9 13 15 16 19
8 11 5 9 10 5 7 4 4 6 10 15 14 8 8 10 14 14 12 12 11 12 11 11 12 11 13 16 16 16 21 22 21 21 22 21 20 19 16 14 14 14 14 18
5 5 3 5 1 2 3 6 5 2 3 5 9 17 16 13 11 12 11 8 8 7 8 9 9 12 13 14 19 21 22 22 20 19 18 19 20 21 20 19 19 17 18 18
2 7 5 2 1 7 3 4 3 4 5 11 14 19 14 13 12 9 8 6 7 9 11 12 14 15 16 17 17 18 21 22 22 22 19 16 17 19 20 22 22 21 21 21
3 4 5 4 7 12 6 6 5 5 8 11 15 13 9 10 8 4 5 7 9 10 11 11 10 11 12 12 14 15 18 20 23 27 27 27 26 24 20 18 19 23 24 24
9 4 8 21 21 20 16 18 17 12 13 10 14 18 8 13 5 4 3 4 3 4 7 9 11 10 13 15 18 21 22 24 26 27 27 26 26 26 26 27 26 23 22 23
3 2 4 9 12 5 3 5 7 9 4 13 14 7 9 8 5 2 6 4 3 3 6 7 9 12 13 16 18 19 21 22 23 25 27 27 29 30 29 29 30 29 29 27
3 4 11 14 18 18 15 14 11 7 5 13 14 20 28 24 17 16 12 6 4 3 4 6 9 10 10 12 15 18 21 22 24 25 26 28 30 32 33 34 34 34 33 33
3 9 13 17 18 17 17 17 24 24 23 20 24 24 23 20 12 2 3 2 5 7 7 6 8 10 11 14 17 20 22 24 27 29 31 33 34 35 36 37 38 39 39 38
2 9 9 14 16 18 20 24 24 23 24 25 24 26 22 7 4 4 5 5 7 8 9 10 11 11 11 12 15 19 22 23 26 30 33 36 38 41 43 46 48 47 46 44
4 5 5 15 14 15 12 20 22 23 25 24 22 13 6 3 3 7 9 11 13 13 14 14 13 12 12 13 18 22 25 28 31 33 35 38 40 42 43 45 46 48 51 54
12 11 8 10 8 15 12 9 10 16 18 13 4 5 4 3 9 13 13 15 16 18 20 20 18 17 15 16 16 17 23 32 35 37 39 39 40 42 43 45 48 51 53 54
19 13 7 6 12 17 22 17 15 13 16 1 6 8 3 10 16 20 13 14 18 19 20 21 21 18 18 16 17 32 38 37 34 33 36 39 43 46 50 52 54 55 58 59
7 14 10 5 8 11 8 3 3 1 9 7 8 5 5 10 8 12 21 20 20 20 21 20 21 28 25 29 36 38 40 40 38 36 38 37 39 42 49 56 60 63 64 66
3 4 13 14 12 10 7 4 4 6 7 10 9 6 14 10 16 24 24 21 19 20 20 20 23 28 33 37 41 45 43 38 38 42 46 48 46 44 45 48 50 52 54 57
7 6 7 6 10 13 3 6 7 3 5 10 11 21 21 22 22 20 21 21 20 20 24 27 31 36 40 42 43 47 51 49 49 51 53 54 54 54 53 49 51 48 47 50
6 10 6 7 6 6 10 11 13 16 20 28 29 27 23 22 21 18 19 18 19 23 26 28 33 38 40 41 44 50 54 53 53 53 54 55 55 53 50 47 47 46 44 45
15 26 13 15 17 23 29 32 33 33 32 33 30 25 22 20 19 21 21 21 22 24 26 30 35 38 42 45 48 49 50 49 51 53 54 53 48 46 44 41 39 40 40 41
14 10 14 15 21 26 30 34 35 34 33 33 28 25 26 19 21 19 20 21 22 25 28 31 34 39 44 47 48 46 46 47 48 50 49 47 44 41 42 40 40 40 41 41
25 20 13 15 27 23 27 33 27 24 30 29 27 25 23 20 19 19 19 20 23 26 27 31 36 41 44 44 45 44 43 43 44 46 44 42 42 42 41 42 43 38 38 39
Wind_Direction
194 223 222 249 255 263 280 286 285 288 292 290 288 294 297 287 280 283 288 305 304 40 45 52 42 40 51 59 54 287 256 258 249 247 243 244 244 247 245 244 243 242 245 244
194 245 258 275 276 288 279 280 283 285 292 306 298 291 291 286 276 284 294 310 86 102 73 56 47 49 46 50 61 62 50 297 272 244 250 245 247 247 249 250 247 245 244 245
257 274 298 287 266 269 267 276 287 296 311 299 292 286 256 278 298 18 39 90 90 76 71 56 47 49 49 42 41 43 44 44 3 268 256 253 242 249 250 257 252 250 250 250
267 339 306 282 267 269 282 298 313 307 311 295 19 292 297 274 266 80 96 75 79 73 66 55 55 52 50 52 52 47 43 42 35 17 305 263 259 273 280 266 269 260 259 255
38 68 319 274 275 287 282 338 311 298 279 285 271 251 291 285 183 114 92 75 65 60 58 59 53 51 49 46 45 46 44 42 41 35 23 346 319 291 264 262 273 276 274 271
251 190 229 246 291 251 314 287 276 262 270 263 277 252 282 48 108 115 98 83 64 50 50 49 49 52 50 47 42 36 32 41 39 35 26 16 353 328 308 276 277 278 283 283
236 241 264 213 266 205 222 272 307 281 212 269 60 333 264 343 84 120 111 91 75 67 52 41 36 32 32 36 38 38 32 33 26 23 27 23 6 356 347 328 304 293 290 292
278 291 206 164 221 315 193 253 221 278 288 294 319 262 252 128 119 114 112 100 80 60 47 40 32 27 30 23 24 27 27 28 23 15 13 11 10 12 1 340 315 301 294 292
287 244 98 211 340 271 161 223 276 216 220 269 250 267 266 140 142 135 120 97 71 61 48 45 40 35 32 26 20 17 16 19 17 11 6 3 359 1 1 358 351 336 319 303
56 287 260 276 219 225 244 359 203 168 256 260 262 279 270 208 178 154 121 72 33 22 25 23 22 20 17 16 14 9 10 8 7 11 13 6 2 353 348 347 345 344 343 335
171 201 250 276 219 253 232 248 228 289 247 259 271 269 304 67 116 130 56 29 12 10 9 10 9 17 18 14 11 9 8 6 2 360 359 0 1 358 352 340 334 335 336 336
197 251 256 269 286 281 274 268 266 255 250 227 251 251 283 25 89 58 2 348 5 18 15 12 10 6 6 3 359 359 355 354 355 353 351 351 349 349 349 347 346 341 329 324
34 236 286 288 285 53 30 350 321 298 275 248 261 270 32 11 5 348 330 287 305 348 15 5 360 359 354 350 349 345 344 343 343 341 340 342 342 341 340 340 339 338 335 333
110 238 242 264 275 303 297 306 272 241 266 291 278 286 293 287 279 257 280 244 245 256 310 345 351 345 341 342 338 335 337 336 334 331 330 330 329 330 329 328 328 329 330 328
247 256 265 269 278 290 291 283 272 270 270 267 279 282 283 298 324 13 192 242 265 265 269 300 308 311 323 326 327 327 325 323 321 321 322 321 320 319 317 317 318 319 320 320
198 261 286 274 273 269 268 266 268 274 275 273 273 271 275 338 327 299 313 325 326 310 292 283 279 285 292 299 309 314 315 312 312 312 312 311 311 311 311 313 314 313 313 313
240 252 258 264 280 298 277 255 261 261 266 269 275 302 31 42 325 327 326 318 314 315 307 285 289 294 291 292 307 314 312 312 311 309 308 307 305 302 302 302 302 303 305 308
247 243 252 275 293 256 264 287 297 282 284 287 269 139 123 351 324 314 316 301 303 307 312 300 291 293 293 297 299 292 298 308 307 306 305 303 301 300 299 300 299 299 299 299
235 249 259 250 246 276 292 290 290 260 280 244 213 177 174 337 329 305 309 318 313 307 300 297 291 291 295 303 298 309 313 312 306 298 300 302 302 300 299 297 295 294 294 293
239 232 231 196 248 263 309 64 44 26 270 174 171 169 316 322 293 294 313 306 302 303 302 303 285 291 299 300 309 313 312 311 307 303 298 294 290 289 292 295 296 295 292 290
189 222 225 236 248 259 274 96 137 249 295 156 168 269 289 278 276 291 297 294 294 299 302 293 295 293 301 308 311 311 312 310 307 302 300 297 294 289 285 286 285 287 287 287
219 236 221 238 257 267 84 130 223 285 139 174 257 298 289 281 285 287 293 294 301 295 297 297 298 301 303 307 309 309 310 312 308 306 304 301 299 296 293 289 287 285 283 283
238 237 264 228 243 209 186 250 260 268 276 285 291 293 289 285 277 285 289 287 286 293 298 300 301 303 306 308 311 311 312 312 310 307 306 305 304 302 301 297 292 289 285 281
264 255 252 254 251 260 271 272 273 274 277 285 287 284 277 270 274 281 283 284 288 295 298 300 304 307 309 310 313 314 314 314 311 309 308 308 308 308 307 303 295 289 286 284
248 281 254 256 258 266 263 265 268 270 273 276 282 278 276 265 269 276 280 284 290 295 301 304 306 307 309 314 315 316 317 316 313 311 310 310 309 306 302 296 292 289 286 282
246 251 254 257 260 261 270 277 282 284 283 276 272 265 265 262 269 271 277 286 293 297 301 306 308 310 315 317 316 319 319 317 315 312 310 309 306 302 299 296 294 295 289 288